sat.trackr.live / text

‹ back to catalog

STARLINK-31385

NORAD 58985 · 2024-031W

PAYLOAD ACTIVE UNKNOWN

§ Identity

Operator
Country
US
Launch date
2024-02-15
Launch site
AFWTR
Launch vehicle
Mass (kg)
RCS (m²)

Purposes: comms

External: N2YO · Heavens-Above · Gunter

§ Orbital elements

Epoch: 2026-05-24T21:51:02.147328Z

Period
93.85 min
Inclination
53.1616°
Eccentricity
0.0000649
Mean motion
15.34396886 rev/d
Perigee alt
462.3 km
Apogee alt
463.2 km
Semi-major
6,840.8 km
B*
2.5534e-5
RAAN
299.7252°
Arg perigee
126.7210°
Mean anomaly
233.3853°
Rev number
12,822

§ Raw data

STARLINK-313851 58985U 24031W   26144.91044152  .00000487  00000+0  25534-4 0  99992 58985  53.1616 299.7252 0000649 126.7210 233.3853 15.34396886128228

JSON: /api/v1/satellites/58985 · /tle

For live sub-satellite position, see the globe view (requires WebGL).

§ Visibility from observer

Set your observer location to see the next 7 days of passes ≥ 10°. The values pass through the URL so the page stays shareable.

No JS? Fill the form by hand. The geolocation button needs JavaScript.